sat.trackr.live / text

‹ back to catalog

STARLINK-2241

NORAD 48586 · 2021-041AK

PAYLOAD ACTIVE UNKNOWN

§ Identity

Operator
Country
US
Launch date
2021-05-15
Launch site
AFETR
Launch vehicle
Mass (kg)
RCS (m²)

Purposes: comms

External: N2YO · Heavens-Above · Gunter

§ Orbital elements

Epoch: 2026-05-25T01:25:06.138048Z

Period
94.01 min
Inclination
53.1609°
Eccentricity
0.0000805
Mean motion
15.31688391 rev/d
Perigee alt
470.2 km
Apogee alt
471.3 km
Semi-major
6,848.9 km
B*
-1.6484e-5
RAAN
153.7312°
Arg perigee
75.0295°
Mean anomaly
285.0796°
Rev number
27,664

§ Raw data

STARLINK-22411 48586U 21041AK  26145.05909882 -.00000876  00000+0 -16484-4 0  99972 48586  53.1609 153.7312 0000805  75.0295 285.0796 15.31688391276647

JSON: /api/v1/satellites/48586 · /tle

For live sub-satellite position, see the globe view (requires WebGL).

§ Visibility from observer

Set your observer location to see the next 7 days of passes ≥ 10°. The values pass through the URL so the page stays shareable.

No JS? Fill the form by hand. The geolocation button needs JavaScript.